Overview Statistics Trail Chart Weather Telemetry Raw packets
 

This is the latest recevied weather packets stored in our database for station/object LA4M-10. If no packets are shown the sender has not sent any weather packets the latest 10 day(s).

<< 24 25 26 27 28 29 30 >>
Time Temp. Humidity Pressure Rain* Wind** Luminosity Snow
1787929641 17.78° C 61% 945.8 hPa - - - -
1787928741 18.33° C 65% 946.4 hPa - - - -
1787927841 17.78° C 64% 946.6 hPa - - - -
1787926940 18.89° C 62% 946.3 hPa - - - -
1787926040 18.33° C 64% 946.8 hPa - - - -
1787925140 18.33° C 62% 947.2 hPa - - - -
1787924240 18.89° C 60% 947.7 hPa - - - -
1787923340 18.89° C 61% 947.6 hPa - - - -
1787922440 18.89° C 59% 947.6 hPa - - - -
1787921540 17.78° C 58% 947 hPa - - - -
1787920640 18.89° C 56% 948 hPa - - - -
1787919740 18.89° C 55% 948.3 hPa - - - -
1787918839 19.44° C 58% 948.2 hPa - - - -
1787917939 18.33° C 57% 948.4 hPa - - - -
1787917039 19.44° C 55% 948.5 hPa - - - -
1787916139 18.89° C 60% 948.7 hPa - - - -
1787915239 18.89° C 61% 948.7 hPa - - - -
1787914339 18.89° C 61% 949.2 hPa - - - -
1787913439 18.89° C 62% 949.4 hPa - - - -
1787912539 18.89° C 61% 949.4 hPa - - - -
1787911639 18.89° C 64% 949.8 hPa - - - -
1787910739 19.44° C 68% 950 hPa - - - -
1787909838 18.89° C 70% 950.1 hPa - - - -
1787908938 18.33° C 76% 950.2 hPa - - - -
1787908038 18.33° C 81% 950.3 hPa - - - -

* Rain since midnight (hover to see other rain measurements)
** Current wind speed in m/s (hover to see current wind gust speed)